tititudorancea.com
Station Historical Data
Daily Summary for March 28, 2018 Units:  Metric    English   Both
« Previous Day
Next Day »
Daily Weekly Monthly Yearly Custom
  High: Low: Average:
Temperature: -17.8 °C 14.5 °C 20.3 °C
Dew Point: -17.8 °C 2.1 °C 6.9 °C
Humidity: Humidity % 24 % 45 %
Wind Speed: 0 km/h 1 km/h 9.8 km/h
Wind Gust: 0 km/h - -
Wind:- - SSW
Pressure: 0 hPa 1009.4 hPa -
Precipitation: 0 mm    
Historical Graphs
 
 
Ararat weather Find more about Weather in Ararat, AU


 



 


Tabular Data for March 28, 2018
Time Temperature Dew Point Pressure Wind Wind Speed Wind Gust Humidity Rainfall Rate (Hourly)
-17.8 °C -17.8 °C 0 hPa Calm     Humidity % 0 mm
00:04 18.7 °C 4.8 °C 1011.1 hPa North 9.5 km/h 13 km/h 40 % 0 mm
00:09 18.7 °C 4.8 °C 1011.1 hPa North 5.6 km/h 14.8 km/h 40 % 0 mm
00:14 18.7 °C 4.8 °C 1010.7 hPa North 6.1 km/h 13 km/h 40 % 0 mm
00:19 18.6 °C 4.7 °C 1010.7 hPa NNE 13.8 km/h 17.7 km/h 40 % 0 mm
00:24 18.6 °C 4.7 °C 1010.4 hPa NNE 9.5 km/h 13 km/h 40 % 0 mm
00:29 18.6 °C 4.7 °C 1010.4 hPa NNE 13.8 km/h 18.5 km/h 40 % 0 mm
00:34 18.6 °C 4.7 °C 1010 hPa NNE 13.2 km/h 24.1 km/h 40 % 0 mm
00:39 18.6 °C 4.7 °C 1010.4 hPa NNE 10.8 km/h 20.4 km/h 40 % 0 mm
00:44 18.6 °C 4.7 °C 1010.4 hPa NNE 7.9 km/h 18.5 km/h 40 % 0 mm
00:49 18.7 °C 4.8 °C 1010.7 hPa North 4.8 km/h 18.5 km/h 40 % 0 mm
00:54 18.7 °C 4.4 °C 1010.7 hPa North 5.8 km/h 9.7 km/h 39 % 0 mm
01:00 18.7 °C 4.5 °C 1010.7 hPa North 8.7 km/h 9.3 km/h 39 % 0 mm
01:12 18.7 °C 4.4 °C 1010.7 hPa North 13 km/h 13 km/h 39 % 0 mm
01:17 18.7 °C 4.4 °C 1010.7 hPa North 9.7 km/h 13 km/h 39 % 0 mm
01:22 18.6 °C 4.7 °C 1010.7 hPa NNE 6.4 km/h 16.7 km/h 40 % 0 mm
01:27 18.6 °C 4.7 °C 1010.7 hPa North 8.2 km/h 13 km/h 40 % 0 mm
01:32 18.4 °C 4.6 °C 1010.7 hPa North 3.2 km/h 5.6 km/h 40 % 0 mm
01:37 18.4 °C 4.6 °C 1010.7 hPa North 5.6 km/h 7.4 km/h 40 % 0 mm
01:42 18.3 °C 4.5 °C 1010.7 hPa North 10.8 km/h 13 km/h 40 % 0 mm
01:47 18.5 °C 4.6 °C 1010.7 hPa North 9.8 km/h 17.7 km/h 40 % 0 mm
01:52 18.6 °C 4.4 °C 1010.4 hPa North 8.9 km/h 18.5 km/h 39 % 0 mm
01:57 18.7 °C 4.4 °C 1010.4 hPa North 8.2 km/h 16.7 km/h 39 % 0 mm
02:02 18.7 °C 4.4 °C 1010 hPa North 15.8 km/h 25.9 km/h 39 % 0 mm
02:07 18.7 °C 4.4 °C 1010 hPa North 12.6 km/h 13 km/h 39 % 0 mm
02:12 18.7 °C 4.4 °C 1010.4 hPa North 12.7 km/h 20.4 km/h 39 % 0 mm
02:17 18.7 °C 4.4 °C 1010.4 hPa North 9.8 km/h 14.8 km/h 39 % 0 mm
02:22 18.6 °C 4.4 °C 1010.4 hPa North 17.1 km/h 24.1 km/h 39 % 0 mm
02:27 18.7 °C 4.4 °C 1010 hPa NNE 15.4 km/h 22.2 km/h 39 % 0 mm
02:32 18.7 °C 4.4 °C 1010 hPa North 6.1 km/h 11.3 km/h 39 % 0 mm
02:37 18.6 °C 4.7 °C 1010 hPa North 9.7 km/h 16.7 km/h 40 % 0 mm
02:42 18.4 °C 4.6 °C 1010 hPa North 6.4 km/h 20.4 km/h 40 % 0 mm
02:47 18.4 °C 4.6 °C 1010 hPa North 11.4 km/h 16.7 km/h 40 % 0 mm
02:52 18.4 °C 4.6 °C 1010 hPa North 7.7 km/h 13 km/h 40 % 0 mm
02:57 18.4 °C 4.6 °C 1010 hPa North 6.8 km/h 11.3 km/h 40 % 0 mm
03:02 18.3 °C 4.4 °C 1010 hPa North 12.4 km/h 18.5 km/h 40 % 0 mm
03:07 18.2 °C 4.3 °C 1010 hPa North 16.4 km/h 18.5 km/h 40 % 0 mm
03:12 18.1 °C 4.3 °C 1009.7 hPa NNE 11.1 km/h 14.8 km/h 40 % 0 mm
03:17 18 °C 4.2 °C 1009.7 hPa North 10.9 km/h 22.2 km/h 40 % 0 mm
03:22 17.9 °C 4.1 °C 1009.7 hPa North 10.1 km/h 14.5 km/h 40 % 0 mm
03:27 17.9 °C 3.8 °C 1009.7 hPa North 14 km/h 14.8 km/h 39 % 0 mm
03:32 18 °C 3.8 °C 1009.7 hPa North 9.7 km/h 16.7 km/h 39 % 0 mm
03:37 17.9 °C 4.1 °C 1009.7 hPa North 11.6 km/h 12.9 km/h 40 % 0 mm
03:42 17.8 °C 4 °C 1009.7 hPa North 12.7 km/h 18.5 km/h 40 % 0 mm
03:47 17.7 °C 3.9 °C 1009.7 hPa North 10.5 km/h 16.7 km/h 40 % 0 mm
03:52 17.7 °C 3.9 °C 1009.4 hPa NNE 13.5 km/h 14.8 km/h 40 % 0 mm
03:57 17.7 °C 3.9 °C 1009.4 hPa North 10 km/h 16.7 km/h 40 % 0 mm
04:02 17.7 °C 3.9 °C 1009.4 hPa North 10.1 km/h 18.5 km/h 40 % 0 mm
04:07 17.7 °C 3.6 °C 1009.4 hPa North 9 km/h 24.1 km/h 39 % 0 mm
04:12 17.8 °C 3.7 °C 1009.4 hPa North 12.6 km/h 18.5 km/h 39 % 0 mm
04:17 17.8 °C 3.7 °C 1009.4 hPa North 11.9 km/h 18.5 km/h 39 % 0 mm
04:22 17.8 °C 3.7 °C 1009.7 hPa North 15 km/h 22.2 km/h 39 % 0 mm
04:27 17.8 °C 3.6 °C 1009.7 hPa North 11.9 km/h 20.4 km/h 39 % 0 mm
04:32 17.7 °C 3.9 °C 1009.7 hPa NNW 11.9 km/h 20.4 km/h 40 % 0 mm
04:37 17.6 °C 3.8 °C 1009.7 hPa North 10.9 km/h 18.5 km/h 40 % 0 mm
04:42 17.6 °C 3.8 °C 1009.7 hPa North 13.8 km/h 20.4 km/h 40 % 0 mm
04:47 17.4 °C 3.7 °C 1009.7 hPa North 9.3 km/h 16.7 km/h 40 % 0 mm
04:52 17.2 °C 3.8 °C 1009.4 hPa North 9.7 km/h 18.5 km/h 41 % 0 mm
04:57 17.1 °C 4.1 °C 1009.7 hPa North 11.3 km/h 18.5 km/h 42 % 0 mm
05:02 16.9 °C 3.9 °C 1009.4 hPa North 8.5 km/h 14.8 km/h 42 % 0 mm
05:08 16.7 °C 4.1 °C 1009.4 hPa North 8.9 km/h 13 km/h 43 % 0 mm
05:13 16.6 °C 3.9 °C 1009.4 hPa North 9 km/h 14.8 km/h 43 % 0 mm
05:18 16.5 °C 3.9 °C 1009.4 hPa North 8 km/h 13 km/h 43 % 0 mm
05:23 16.4 °C 3.8 °C 1009.4 hPa North 8.2 km/h 14.8 km/h 43 % 0 mm
05:28 16.4 °C 3.8 °C 1009.4 hPa North 8.4 km/h 13 km/h 43 % 0 mm
05:33 16.4 °C 3.8 °C 1009.4 hPa North 9.8 km/h 16.7 km/h 43 % 0 mm
05:38 16.4 °C 3.5 °C 1009.4 hPa North 11.9 km/h 18.5 km/h 42 % 0 mm
05:43 16.5 °C 3.6 °C 1009.4 hPa North 11.1 km/h 18.5 km/h 42 % 0 mm
05:48 16.6 °C 3.6 °C 1009.4 hPa North 11.9 km/h 16.7 km/h 42 % 0 mm
05:53 16.6 °C 3.2 °C 1009.4 hPa North 10 km/h 16.1 km/h 41 % 0 mm
05:58 16.6 °C 3.2 °C 1009.4 hPa North 9 km/h 18.5 km/h 41 % 0 mm
06:03 16.6 °C 3.2 °C 1009.4 hPa North 11.9 km/h 14.8 km/h 41 % 0 mm
06:08 16.6 °C 2.9 °C 1009.4 hPa North 8.2 km/h 14.8 km/h 40 % 0 mm
06:13 16.6 °C 2.9 °C 1009.4 hPa North 10.5 km/h 18.5 km/h 40 % 0 mm
06:18 16.6 °C 2.9 °C 1009.4 hPa North 7.9 km/h 22.2 km/h 40 % 0 mm
06:23 16.6 °C 2.6 °C 1009.4 hPa North 10.1 km/h 14.8 km/h 39 % 0 mm
06:28 16.7 °C 2.7 °C 1009.4 hPa North 12.7 km/h 16.7 km/h 39 % 0 mm
06:33 16.9 °C 2.4 °C 1009.4 hPa North 13.2 km/h 18.5 km/h 38 % 0 mm
06:38 17 °C 2.6 °C 1009.7 hPa North 13.2 km/h 18.5 km/h 38 % 0 mm
06:43 17 °C 2.6 °C 1009.7 hPa North 11.7 km/h 18.5 km/h 38 % 0 mm
06:48 16.9 °C 2.2 °C 1009.7 hPa North 9.8 km/h 16.7 km/h 37 % 0 mm
06:53 16.9 °C 2.2 °C 1010 hPa NNE 9.5 km/h 13 km/h 37 % 0 mm
06:58 16.9 °C 2.1 °C 1010 hPa North 9.7 km/h 18.5 km/h 37 % 0 mm
07:03 16.9 °C 2.1 °C 1010 hPa NNE 12.2 km/h 16.7 km/h 37 % 0 mm
07:08 16.9 °C 2.1 °C 1010 hPa North 10.3 km/h 16.7 km/h 37 % 0 mm
07:13 16.9 °C 2.1 °C 1010.4 hPa North 7.4 km/h 11.1 km/h 37 % 0 mm
07:18 16.8 °C 2.4 °C 1010.4 hPa NNE 6.1 km/h 12.9 km/h 38 % 0 mm
07:23 16.7 °C 2.3 °C 1010.4 hPa NNE 5 km/h 13 km/h 38 % 0 mm
07:28 16.6 °C 2.2 °C 1010.7 hPa NNE 5.5 km/h 7.4 km/h 38 % 0 mm
07:33 16.6 °C 2.2 °C 1010.7 hPa NNE 4.7 km/h 5.6 km/h 38 % 0 mm
07:38 16.5 °C 2.5 °C 1010.7 hPa NNE 3.5 km/h 5.6 km/h 39 % 0 mm
07:43 16.4 °C 2.4 °C 1010.7 hPa NNE 8.4 km/h 13 km/h 39 % 0 mm
07:48 16.4 °C 2.4 °C 1010.7 hPa NNE 9.2 km/h 13 km/h 39 % 0 mm
07:53 16.4 °C 2.4 °C 1010.7 hPa NNE 10 km/h 13 km/h 39 % 0 mm
07:58 16.3 °C 2.3 °C 1010.7 hPa North 7.6 km/h 14.8 km/h 39 % 0 mm
08:03 16.3 °C 2.3 °C 1010.7 hPa North 4.5 km/h 7.4 km/h 39 % 0 mm
08:08 16.3 °C 2.3 °C 1010.7 hPa North 7.7 km/h 14.8 km/h 39 % 0 mm
08:13 16.4 °C 2.4 °C 1010.7 hPa North 8.5 km/h 13 km/h 39 % 0 mm
08:18 16.4 °C 2.4 °C 1010.7 hPa North 8 km/h 14.8 km/h 39 % 0 mm
08:23 16.5 °C 2.5 °C 1010.7 hPa North 7.2 km/h 13 km/h 39 % 0 mm
08:28 16.7 °C 2.3 °C 1010.7 hPa NNW 6.9 km/h 12.9 km/h 38 % 0 mm
08:33 16.8 °C 2.4 °C 1011.1 hPa North 8.4 km/h 13 km/h 38 % 0 mm
08:38 17 °C 2.6 °C 1011.1 hPa NNW 10.3 km/h 18.5 km/h 38 % 0 mm
08:43 17.2 °C 2.3 °C 1011.1 hPa NW 11.1 km/h 11.3 km/h 37 % 0 mm
08:48 17.3 °C 2.4 °C 1011.1 hPa NNW 10.8 km/h 18.5 km/h 37 % 0 mm
08:53 17.4 °C 2.2 °C 1011.1 hPa North 14.8 km/h 25.9 km/h 36 % 0 mm
08:58 17.6 °C 2.3 °C 1011.1 hPa North 13.7 km/h 22.2 km/h 36 % 0 mm
09:03 17.7 °C 2.4 °C 1011.1 hPa NNE 10.6 km/h 22.2 km/h 36 % 0 mm
09:08 17.9 °C 2.6 °C 1011.4 hPa North 8.5 km/h 14.8 km/h 36 % 0 mm
09:13 18.1 °C 2.4 °C 1011.4 hPa North 13.2 km/h 17.7 km/h 35 % 0 mm
09:18 18.3 °C 2.6 °C 1011.4 hPa North 7.7 km/h 14.8 km/h 35 % 0 mm
09:23 18.4 °C 2.2 °C 1011.1 hPa NNW 12.1 km/h 16.7 km/h 34 % 0 mm
09:28 18.6 °C 2.4 °C 1011.4 hPa NNW 11.3 km/h 20.4 km/h 34 % 0 mm
09:33 18.8 °C 2.6 °C 1011.4 hPa NNE 16.3 km/h 20.9 km/h 34 % 0 mm
09:38 18.9 °C 2.3 °C 1011.4 hPa NNW 15.4 km/h 31.5 km/h 33 % 0 mm
09:43 19 °C 2.3 °C 1011.7 hPa NNW 13 km/h 17.7 km/h 33 % 0 mm
09:48 19.2 °C 2.5 °C 1011.7 hPa NNW 12.9 km/h 24.1 km/h 33 % 0 mm
09:53 19.4 °C 2.7 °C 1011.7 hPa NNW 12.1 km/h 24.1 km/h 33 % 0 mm
09:58 19.6 °C 2.9 °C 1011.7 hPa NNW 9.2 km/h 14.8 km/h 33 % 0 mm
10:03 19.8 °C 2.6 °C 1011.7 hPa NNW 14.8 km/h 22.2 km/h 32 % 0 mm
10:08 19.8 °C 2.7 °C 1011.7 hPa NNW 11.9 km/h 18.5 km/h 32 % 0 mm
10:13 20.1 °C 2.9 °C 1012.1 hPa North 15.4 km/h 16.7 km/h 32 % 0 mm
10:18 20.3 °C 3.5 °C 1012.1 hPa NNW 7.6 km/h 11.1 km/h 33 % 0 mm
10:23 20.7 °C 3.4 °C 1012.1 hPa North 11.1 km/h 18.5 km/h 32 % 0 mm
10:28 20.7 °C 3.4 °C 1012.1 hPa NNW 9.3 km/h 14.8 km/h 32 % 0 mm
10:33 21 °C 4.1 °C 1012.4 hPa NNE 13.4 km/h 16.7 km/h 33 % 0 mm
10:38 21.1 °C 3.7 °C 1012.4 hPa North 10.8 km/h 18.5 km/h 32 % 0 mm
10:43 21 °C 3.7 °C 1012.4 hPa North 10.3 km/h 20.4 km/h 32 % 0 mm
10:48 21.3 °C 4.3 °C 1012.4 hPa NNW 11.3 km/h 18.5 km/h 33 % 0 mm
10:53 21.4 °C 4.4 °C 1012.4 hPa North 13 km/h 13 km/h 33 % 0 mm
10:58 21.7 °C 5.1 °C 1012.4 hPa North 10.3 km/h 18.5 km/h 34 % 0 mm
11:04 21.7 °C 5.2 °C 1012.4 hPa North 11.1 km/h 16.7 km/h 34 % 0 mm
11:09 22.1 °C 5.5 °C 1012.4 hPa North 11.7 km/h 18.5 km/h 34 % 0 mm
11:14 22.3 °C 5.3 °C 1012.4 hPa North 11.7 km/h 18.5 km/h 33 % 0 mm
11:19 22.6 °C 5.4 °C 1012.4 hPa North 10.1 km/h 16.7 km/h 33 % 0 mm
11:24 22.7 °C 6 °C 1012.4 hPa North 15.3 km/h 20.4 km/h 34 % 0 mm
11:29 22.8 °C 6.1 °C 1012.4 hPa North 10.1 km/h 14.8 km/h 34 % 0 mm
11:34 22.8 °C 6.2 °C 1012.4 hPa NNW 11.3 km/h 18.5 km/h 34 % 0 mm
11:39 22.9 °C 5.8 °C 1012.4 hPa North 12.9 km/h 16.7 km/h 33 % 0 mm
11:44 23.3 °C 6.2 °C 1012.4 hPa North 7.4 km/h 9.3 km/h 33 % 0 mm
11:49 23.6 °C 6.8 °C 1012.4 hPa North 10.3 km/h 14.8 km/h 34 % 0 mm
11:54 23.4 °C 6.2 °C 1012.4 hPa NNW 9.5 km/h 14.8 km/h 33 % 0 mm
11:59 23.4 °C 6.6 °C 1012.1 hPa North 9.8 km/h 14.8 km/h 34 % 0 mm
12:04 23.7 °C 6.9 °C 1012.4 hPa NNW 10.1 km/h 18.5 km/h 34 % 0 mm
12:09 23.8 °C 7 °C 1012.4 hPa North 7.7 km/h 14.8 km/h 34 % 0 mm
12:14 24.1 °C 7.3 °C 1012.4 hPa North 12.1 km/h 16.7 km/h 34 % 0 mm
12:19 24.3 °C 7.4 °C 1012.1 hPa North 6.6 km/h 11.3 km/h 34 % 0 mm
12:24 24.4 °C 7.5 °C 1012.1 hPa NNW 9.3 km/h 16.7 km/h 34 % 0 mm
12:29 24.6 °C 7.7 °C 1012.1 hPa North 8.5 km/h 13 km/h 34 % 0 mm
12:34 24.7 °C 7.7 °C 1012.1 hPa NNE 9.8 km/h 16.7 km/h 34 % 0 mm
12:39 24.9 °C 7.9 °C 1012.1 hPa North 10.6 km/h 14.8 km/h 34 % 0 mm
12:44 25.2 °C 7.8 °C 1012.1 hPa North 8.4 km/h 11.1 km/h 33 % 0 mm
12:49 25.4 °C 7.9 °C 1012.1 hPa NNE 9.8 km/h 18.5 km/h 33 % 0 mm
12:54 25.4 °C 7.9 °C 1012.4 hPa NNE 5.8 km/h 11.1 km/h 33 % 0 mm
12:59 25.5 °C 7.6 °C 1012.4 hPa NNE 5.5 km/h 7.4 km/h 32 % 0 mm
13:04 25.9 °C 7.9 °C 1012.1 hPa NNE 4.8 km/h 8 km/h 32 % 0 mm
13:09 26.3 °C 7.8 °C 1012.1 hPa NNE 5.6 km/h 7.4 km/h 31 % 0 mm
13:14 26.4 °C 7.4 °C 1012.1 hPa NNW 8.2 km/h 14.8 km/h 30 % 0 mm
13:19 26.5 °C 7.5 °C 1012.1 hPa North 4 km/h 5.6 km/h 30 % 0 mm
13:24 26.7 °C 5.6 °C 1012.1 hPa WNW 12.1 km/h 18.5 km/h 26 % 0 mm
13:29 26.7 °C 5.6 °C 1012.1 hPa WNW 10.6 km/h 16.7 km/h 26 % 0 mm
13:34 26.8 °C 5.1 °C 1012.1 hPa WNW 8.9 km/h 13 km/h 25 % 0 mm
13:39 26.9 °C 5.2 °C 1012.1 hPa WNW 2.4 km/h 8 km/h 25 % 0 mm
13:44 27.2 °C 5.4 °C 1011.7 hPa WNW 1.6 km/h 5.6 km/h 25 % 0 mm
13:49 27.5 °C 5.7 °C 1011.7 hPa WNW 2.9 km/h 8 km/h 25 % 0 mm
13:54 27.6 °C 5.8 °C 1011.7 hPa WNW 3.5 km/h 5.6 km/h 25 % 0 mm
13:59 28.2 °C 5.7 °C 1011.7 hPa West 1 km/h 7.4 km/h 24 % 0 mm
14:04 28.1 °C 5.6 °C 1011.7 hPa West 9 km/h 11.1 km/h 24 % 0 mm
14:09 27.7 °C 5.9 °C 1011.7 hPa North 11.9 km/h 17.7 km/h 25 % 0 mm
14:14 27.4 °C 5.7 °C 1011.7 hPa SSW 8 km/h 9.3 km/h 25 % 0 mm
14:19 27.4 °C 5.7 °C 1011.7 hPa North 8.5 km/h 11.1 km/h 25 % 0 mm
14:24 27.7 °C 5.3 °C 1011.7 hPa SW 5.8 km/h 7.4 km/h 24 % 0 mm
14:29 27.8 °C 5.9 °C 1011.7 hPa SW 1 km/h 1.9 km/h 25 % 0 mm
14:34 27.9 °C 5.4 °C 1011.7 hPa SW 7.4 km/h 12.9 km/h 24 % 0 mm
14:39 27.7 °C 5.9 °C 1011.7 hPa WSW 9.8 km/h 13 km/h 25 % 0 mm
14:44 27.6 °C 5.8 °C 1011.7 hPa SW 7.2 km/h 12.9 km/h 25 % 0 mm
14:49 27.3 °C 6.1 °C 1011.7 hPa SSW 6.9 km/h 8 km/h 26 % 0 mm
14:54 27.7 °C 6.4 °C 1011.7 hPa SSW 10 km/h 11.1 km/h 26 % 0 mm
14:59 27.6 °C 6.3 °C 1011.4 hPa North 12.7 km/h 18.5 km/h 26 % 0 mm
15:04 27.4 °C 6.7 °C 1011.4 hPa South 12.7 km/h 18.5 km/h 27 % 0 mm
15:09 27.4 °C 6.8 °C 1011.4 hPa South 5.1 km/h 6.4 km/h 27 % 0 mm
15:14 27.6 °C 7.4 °C 1011.4 hPa SSW 10.8 km/h 18.5 km/h 28 % 0 mm
15:19 27.4 °C 7.3 °C 1011.4 hPa South 10.8 km/h 16.7 km/h 28 % 0 mm
15:24 27.4 °C 7.8 °C 1011.4 hPa SSW 17.5 km/h 18.5 km/h 29 % 0 mm
15:29 27.2 °C 8.1 °C 1011.4 hPa SW 12.7 km/h 14.8 km/h 30 % 0 mm
15:34 27 °C 8.4 °C 1011.4 hPa South 13.4 km/h 18.5 km/h 31 % 0 mm
15:39 27 °C 9.3 °C 1011.4 hPa South 7.1 km/h 13 km/h 33 % 0 mm
15:44 27.3 °C 9.2 °C 1011.4 hPa South 12.1 km/h 18.5 km/h 32 % 0 mm
15:49 27.2 °C 9.1 °C 1011.4 hPa South 7.6 km/h 16.7 km/h 32 % 0 mm
15:54 27.2 °C 9.1 °C 1011.4 hPa South 11.9 km/h 20.4 km/h 32 % 0 mm
15:59 26.9 °C 9.3 °C 1011.4 hPa South 14.8 km/h 14.8 km/h 33 % 0 mm
16:04 26.7 °C 9.6 °C 1011.4 hPa SSW 11.4 km/h 13 km/h 34 % 0 mm
16:09 26.9 °C 9.7 °C 1011.4 hPa SSE 13.7 km/h 18.5 km/h 34 % 0 mm
16:14 26.7 °C 10.4 °C 1011.4 hPa South 11.9 km/h 14.8 km/h 36 % 0 mm
16:19 26.7 °C 10 °C 1011.4 hPa South 15 km/h 16.7 km/h 35 % 0 mm
16:24 26.4 °C 10.2 °C 1011.4 hPa SSW 12.1 km/h 19.3 km/h 36 % 0 mm
16:29 26.5 °C 10.2 °C 1011.4 hPa SSE 11.7 km/h 18.5 km/h 36 % 0 mm
16:34 26.6 °C 10.7 °C 1011.4 hPa South 9.7 km/h 14.8 km/h 37 % 0 mm
16:39 26.4 °C 10.2 °C 1011.4 hPa North 9.5 km/h 14.8 km/h 36 % 0 mm
16:44 26.5 °C 10.2 °C 1011.4 hPa SSW 7.2 km/h 11.1 km/h 36 % 0 mm
16:49 26.4 °C 10.1 °C 1011.4 hPa SSW 15 km/h 20.4 km/h 36 % 0 mm
16:54 26.2 °C 9.9 °C 1011.4 hPa South 12.1 km/h 20.4 km/h 36 % 0 mm
16:59 26.2 °C 9.9 °C 1011.7 hPa SSW 10.9 km/h 14.8 km/h 36 % 0 mm
17:04 26.2 °C 9.9 °C 1011.4 hPa South 8.5 km/h 14.8 km/h 36 % 0 mm
17:09 26.2 °C 9.9 °C 1011.4 hPa South 8.2 km/h 16.7 km/h 36 % 0 mm
17:14 26.1 °C 9.9 °C 1011.4 hPa South 8.2 km/h 13 km/h 36 % 0 mm
17:19 26.1 °C 10.3 °C 1011.4 hPa South 5.8 km/h 16.7 km/h 37 % 0 mm
17:24 26.2 °C 10.4 °C 1011.4 hPa SSW 13.5 km/h 22.2 km/h 37 % 0 mm
17:29 26.2 °C 9.9 °C 1011.4 hPa South 10.5 km/h 14.8 km/h 36 % 0 mm
17:34 26.2 °C 10.4 °C 1011.4 hPa South 5.8 km/h 13 km/h 37 % 0 mm
17:39 26.1 °C 10.2 °C 1011.4 hPa South 9.8 km/h 16.1 km/h 37 % 0 mm
17:44 26 °C 10.2 °C 1011.4 hPa South 10.6 km/h 12.9 km/h 37 % 0 mm
17:49 25.9 °C 10.1 °C 1011.4 hPa North 7.7 km/h 13 km/h 37 % 0 mm
17:54 25.9 °C 10.1 °C 1011.4 hPa South 5.6 km/h 7.4 km/h 37 % 0 mm
17:59 25.9 °C 9.7 °C 1011.4 hPa South 12.1 km/h 13 km/h 36 % 0 mm
18:04 25.9 °C 10.1 °C 1011.4 hPa South 11.9 km/h 13 km/h 37 % 0 mm
18:09 25.8 °C 10.4 °C 1011.7 hPa South 10 km/h 11.1 km/h 38 % 0 mm
18:14 25.7 °C 10.3 °C 1011.7 hPa South 4.8 km/h 9.3 km/h 38 % 0 mm
18:19 25.7 °C 10.3 °C 1011.7 hPa South 7.9 km/h 13 km/h 38 % 0 mm
18:24 25.6 °C 10.2 °C 1011.7 hPa SSW 14.3 km/h 17.7 km/h 38 % 0 mm
18:31 25.4 °C 10.4 °C 1011.7 hPa SSW 3.5 km/h 7.4 km/h 39 % 0 mm
18:36 25.4 °C 10.4 °C 1011.7 hPa SSW 8.4 km/h 14.8 km/h 39 % 0 mm
18:41 25.2 °C 9.9 °C 1012.1 hPa SSW 9.8 km/h 14.8 km/h 38 % 0 mm
18:46 25.1 °C 10.1 °C 1012.1 hPa SSW 6.4 km/h 7.4 km/h 39 % 0 mm
18:51 24.9 °C 10.1 °C 1012.1 hPa South 5.8 km/h 7.4 km/h 39 % 0 mm
18:56 24.8 °C 9.9 °C 1012.1 hPa SSW 5.3 km/h 9.3 km/h 39 % 0 mm
19:01 24.6 °C 10.1 °C 1012.1 hPa SSW 6.3 km/h 7.4 km/h 40 % 0 mm
19:06 24.3 °C 9.9 °C 1012.4 hPa SSW 6.4 km/h 7.4 km/h 40 % 0 mm
19:11 24.1 °C 10.1 °C 1012.4 hPa SSW 6.9 km/h 9.7 km/h 41 % 0 mm
19:16 23.8 °C 10.2 °C 1012.4 hPa SSW 5.1 km/h 8 km/h 42 % 0 mm
19:21 23.6 °C 10.2 °C 1012.4 hPa SSW 4.7 km/h 5.6 km/h 43 % 0 mm
19:26 23.3 °C 10.3 °C 1012.8 hPa SSW 4.5 km/h 7.4 km/h 44 % 0 mm
19:31 23 °C 10.4 °C 1012.8 hPa North 6.6 km/h 11.1 km/h 45 % 0 mm
19:36 22.8 °C 10.6 °C 1012.8 hPa SSW 7.7 km/h 11.3 km/h 46 % 0 mm
19:41 21.8 °C 12.7 °C 1013.1 hPa SSW 14.8 km/h 22.2 km/h 56 % 0 mm
19:46 20.3 °C 13.5 °C 1013.1 hPa South 12.7 km/h 22.2 km/h 65 % 0 mm
19:51 19.2 °C 13.4 °C 1013.4 hPa South 15.6 km/h 20.4 km/h 69 % 0 mm
19:56 18.7 °C 13.5 °C 1013.4 hPa South 11.9 km/h 18.5 km/h 72 % 0 mm
20:01 18.3 °C 13.6 °C 1013.4 hPa North 10.5 km/h 18.5 km/h 74 % 0 mm
20:06 18 °C 13.5 °C 1013.4 hPa South 10.5 km/h 18.5 km/h 75 % 0 mm
20:11 17.8 °C 13.5 °C 1013.8 hPa South 7.6 km/h 14.8 km/h 76 % 0 mm
20:16 17.6 °C 13.5 °C 1013.8 hPa North 10 km/h 16.7 km/h 77 % 0 mm
20:21 17.4 °C 13.5 °C 1013.8 hPa North 9.3 km/h 11.1 km/h 78 % 0 mm
20:26 17.2 °C 13.5 °C 1014.1 hPa South 8.7 km/h 14.8 km/h 79 % 0 mm
20:31 17 °C 13.3 °C 1014.1 hPa South 11.1 km/h 16.7 km/h 79 % 0 mm
20:36 16.7 °C 13.4 °C 1014.1 hPa South 11.4 km/h 18.5 km/h 81 % 0 mm
20:41 16.5 °C 13.4 °C 1014.4 hPa South 11.6 km/h 18.5 km/h 82 % 0 mm
20:46 16.3 °C 13.4 °C 1014.4 hPa South 14.8 km/h 22.2 km/h 83 % 0 mm
20:51 16.2 °C 13.3 °C 1014.4 hPa North 10 km/h 16.7 km/h 83 % 0 mm
20:56 16.2 °C 13.5 °C 1014.8 hPa South 7.4 km/h 16.7 km/h 84 % 0 mm
21:01 16.2 °C 13.4 °C 1014.8 hPa North 6 km/h 18.5 km/h 84 % 0 mm
21:06 16.1 °C 13.4 °C 1014.8 hPa SSE 11.7 km/h 18.5 km/h 84 % 0 mm
21:11 16.1 °C 13.3 °C 1014.8 hPa North 12.1 km/h 22.2 km/h 84 % 0 mm
21:16 15.9 °C 13.4 °C 1014.8 hPa North 11.9 km/h 18.5 km/h 85 % 0 mm
21:21 15.8 °C 13.3 °C 1014.8 hPa South 8.7 km/h 14.8 km/h 85 % 0 mm
21:26 15.7 °C 13.4 °C 1015.1 hPa SSE 12.4 km/h 18.5 km/h 86 % 0 mm
21:31 15.6 °C 13.3 °C 1015.1 hPa North 14.2 km/h 20.9 km/h 86 % 0 mm
21:36 15.6 °C 13.2 °C 1015.1 hPa North 19.2 km/h 22.5 km/h 86 % 0 mm
21:41 15.4 °C 13.3 °C 1015.1 hPa North 14.3 km/h 20.4 km/h 87 % 0 mm
21:46 15.4 °C 13.3 °C 1015.1 hPa North 8.5 km/h 16.7 km/h 87 % 0 mm
21:51 15.4 °C 13.4 °C 1015.1 hPa North 9.3 km/h 16.1 km/h 88 % 0 mm
21:56 15.4 °C 13.2 °C 1015.1 hPa SSE 7.7 km/h 9.7 km/h 87 % 0 mm
22:01 15.4 °C 13.4 °C 1015.1 hPa North 10.9 km/h 18.5 km/h 88 % 0 mm
22:06 15.4 °C 13.4 °C 1015.1 hPa South 11.6 km/h 18.5 km/h 88 % 0 mm
22:11 15.5 °C 13.5 °C 1015.1 hPa North 11.6 km/h 18.5 km/h 88 % 0 mm
22:16 15.4 °C 13.4 °C 1015.1 hPa North 10.6 km/h 14.8 km/h 88 % 0 mm
22:21 15.4 °C 13.4 °C 1015.1 hPa North 9 km/h 18.5 km/h 88 % 0 mm
22:26 15.4 °C 13.4 °C 1015.5 hPa North 10.8 km/h 18.5 km/h 88 % 0 mm
22:31 15.4 °C 13.4 °C 1015.5 hPa North 6.1 km/h 18.5 km/h 88 % 0 mm
22:36 15.4 °C 13.4 °C 1015.5 hPa North 12.6 km/h 18.5 km/h 88 % 0 mm
22:41 15.3 °C 13.3 °C 1015.5 hPa SSE 8.7 km/h 18.5 km/h 88 % 0 mm
22:46 15.3 °C 13.6 °C 1015.5 hPa North 11.7 km/h 17.7 km/h 89 % 0 mm
22:51 15.3 °C 13.6 °C 1015.5 hPa South 12.9 km/h 18.5 km/h 89 % 0 mm
22:56 15.2 °C 13.4 °C 1015.5 hPa South 14.3 km/h 18.5 km/h 89 % 0 mm
23:01 15.2 °C 13.4 °C 1015.5 hPa North 7.4 km/h 13 km/h 89 % 0 mm
23:06 15.1 °C 13.3 °C 1015.5 hPa South 10 km/h 13 km/h 89 % 0 mm
23:11 15 °C 13.2 °C 1015.1 hPa North 8.5 km/h 14.8 km/h 89 % 0 mm
23:16 14.9 °C 13.3 °C 1015.1 hPa South 7.7 km/h 16.1 km/h 90 % 0 mm
23:21 14.9 °C 13.3 °C 1015.5 hPa South 8.4 km/h 14.8 km/h 90 % 0 mm
23:26 14.8 °C 13.4 °C 1015.5 hPa North 9.2 km/h 16.1 km/h 91 % 0 mm
23:31 14.7 °C 13.3 °C 1015.5 hPa South 9.2 km/h 17.7 km/h 91 % 0 mm
23:36 14.7 °C 13.2 °C 1015.5 hPa South 10.5 km/h 18.5 km/h 91 % 0 mm
23:41 14.6 °C 13.2 °C 1015.1 hPa South 10.9 km/h 18.5 km/h 91 % 0 mm
23:46 14.6 °C 13.2 °C 1015.1 hPa North 12.2 km/h 14.8 km/h 91 % 0 mm
23:51 14.6 °C 13.3 °C 1015.1 hPa North 4.8 km/h 11.1 km/h 92 % 0 mm
23:56 14.5 °C 13.2 °C 1015.1 hPa South 11.1 km/h 14.8 km/h 92 % 0 mm
Ararat Weather
Compliments of Weather Underground - 2.25 mb
Click here to send mail.


ABOUT

Live weather data from Ararat, Victoria, Australia, 3377
Data uploaded from Cumulus every 5 minutes to Weather Underground.
This site then downloads the raw data for formatting and display.
Metric and imperial data can be displayed. Graphs and historical data available.
Includes Sun and Moon times and rain image live from BOM.

Check out Ararat Weather on Facebook, Twitter and Google +

Help support ongoing costs by checking out the ads





Follow @AraratWeather